Location: Helsinki
(60.1699°N, 24.9384°E)
Time: 11:21:23
(UTC+02:00)

Transit 2A Rocket - Pass Details

Date: 30 September 2023
Orbit: 593 x 903 km, 66.7° (Epoch: 06 December)

Event Time Altitude Azimuth Distance (km) Brightness Sun altitude
Rises 23:52:13 0° 306° (NW) 2,961 8.9 -30.9°
Reaches altitude 10° 23:55:20 10° 285° (WNW) 2,001 7.6 -31.0°
Enters shadow 23:56:16 13° 274° (W) 1,797 7.2 -31.1°
Maximum altitude 23:57:57 16° 249° (WSW) 1,630 - -31.1°
Drops below altitude 10° 00:00:32 10° 212° (SSW) 1,942 - -31.2°
Sets 00:03:30 0° 190° (S) 2,825 - -31.4°
